Theta_e
299 296 293 297 300 303 307 306 305 306 311 310 310 309 314 320 321 315 316 317 317 318 320 321 319 317 313 313 312 311 309 309 308 306 303 303 302 303 304 305 306 307 306 306
296 293 298 300 302 307 306 305 303 305 311 308 305 306 311 317 320 317 315 316 317 317 319 318 317 315 313 312 312 311 311 309 309 306 306 305 303 304 304 305 305 306 307 306
294 298 301 301 299 300 302 303 302 302 308 308 306 303 308 312 320 321 316 317 318 318 318 316 315 314 313 311 311 312 312 311 309 308 304 303 303 303 303 303 304 306 307 307
296 300 300 298 298 299 294 304 305 306 301 295 303 293 301 306 311 316 318 314 317 319 320 317 316 315 313 312 313 312 311 309 307 305 303 302 301 301 302 303 304 306 307 308
295 297 297 297 299 301 298 303 303 302 299 299 301 297 301 309 308 311 316 317 317 319 319 317 317 316 315 313 312 312 311 308 306 304 303 302 301 302 303 304 305 306 307 307
297 299 300 299 301 303 303 298 295 293 295 291 297 297 297 303 309 313 316 319 316 319 319 320 318 316 314 313 311 311 308 306 304 304 302 302 302 302 303 304 304 305 305 306
295 294 297 301 296 297 296 292 287 286 286 287 295 296 301 305 313 316 316 317 316 320 319 318 315 314 312 311 311 310 308 304 304 304 303 303 303 304 305 304 305 304 304 305
290 289 295 299 297 294 294 293 288 284 284 288 297 293 299 312 315 320 321 319 318 319 319 317 315 314 312 311 311 311 308 305 305 305 303 303 304 305 305 306 305 305 304 304
290 291 298 299 300 299 292 291 294 288 288 286 291 298 306 313 314 317 318 317 316 318 317 316 315 314 312 311 311 310 307 305 305 304 303 303 304 305 306 306 305 304 304 305
294 290 298 300 298 295 296 297 291 287 283 282 286 295 298 304 310 313 315 316 316 317 317 316 315 313 312 311 311 310 309 306 305 304 303 305 304 305 306 305 306 305 304 305
294 292 293 296 293 293 293 292 292 290 288 285 284 291 306 307 309 312 314 316 317 317 316 315 315 314 312 312 310 309 307 305 305 304 304 303 304 305 306 306 306 305 305 305
295 292 289 292 295 299 295 293 293 288 287 290 289 291 303 308 312 313 313 317 318 318 318 317 315 313 311 309 308 307 307 306 306 305 304 303 304 305 306 306 306 306 305 305
295 289 286 288 293 297 294 295 293 293 290 291 290 291 305 310 313 316 316 316 318 317 317 316 313 311 310 309 308 307 307 307 306 305 304 304 304 305 305 306 305 305 305 306
302 289 289 288 292 296 296 297 296 294 290 290 293 294 301 307 310 315 315 316 316 316 314 309 309 310 309 308 307 308 307 307 306 305 304 304 304 305 305 305 305 304 305 306
296 291 291 293 296 298 298 297 298 296 295 294 296 298 302 304 310 314 316 316 316 311 309 308 308 307 307 307 307 308 307 306 306 305 304 305 305 305 305 305 305 306 306 306
295 292 292 292 296 297 295 300 301 300 300 299 301 301 305 313 315 316 317 317 316 311 310 308 306 305 306 307 306 307 306 306 306 305 305 305 305 305 305 305 305 305 306 306
294 292 290 289 296 296 293 300 303 303 303 304 300 304 310 313 314 315 317 318 316 313 311 308 305 305 306 306 307 306 307 307 306 306 306 305 305 305 306 306 305 305 306 306
294 292 291 289 294 287 297 307 307 305 306 307 306 307 311 312 315 317 319 319 315 313 312 310 308 306 306 306 307 308 307 307 306 306 306 306 306 306 306 305 306 307 307 306
299 294 292 290 288 294 303 306 304 302 302 307 306 310 311 313 314 313 319 321 318 314 314 312 309 307 306 307 308 308 307 306 307 306 305 306 307 307 308 306 305 308 307 306
301 298 295 292 290 288 298 307 310 307 298 308 309 309 310 312 306 310 314 318 316 315 313 308 306 306 307 308 308 307 306 305 305 306 306 307 308 309 307 306 307 308 308 306
298 296 294 291 291 296 303 309 310 297 300 307 307 307 310 310 311 312 314 312 312 310 307 306 307 307 307 308 308 306 305 305 307 308 308 309 309 308 307 306 308 307 306 305
297 296 293 295 292 292 309 308 303 305 305 309 309 308 311 310 310 308 308 307 307 305 305 306 305 305 308 309 308 305 305 307 308 308 309 309 308 307 306 305 306 307 306 305
299 301 299 298 297 304 308 307 310 309 309 309 308 310 310 309 307 306 305 305 306 306 305 306 305 305 307 308 308 305 306 307 307 307 308 308 307 307 305 305 306 303 302 301
304 308 302 302 303 307 311 312 311 313 312 313 313 311 311 307 306 304 304 304 304 305 305 306 306 305 305 306 307 307 307 308 307 305 307 307 305 304 304 304 304 304 301 300
305 307 303 304 307 309 310 314 312 313 314 313 312 311 308 307 305 305 304 304 304 305 305 306 305 305 304 305 306 306 306 306 304 303 303 303 303 304 304 303 304 305 306 303
307 305 304 302 307 308 308 315 316 314 313 312 311 309 308 307 305 306 304 305 305 305 305 305 304 305 304 305 306 306 307 305 303 303 303 302 303 303 303 302 303 299 298 297
Wind_Speed
5 5 7 12 8 3 6 5 6 4 6 7 17 5 8 13 11 11 13 12 12 15 12 14 14 15 13 9 9 9 10 6 7 4 4 2 2 1 0 1 2 3 3 4
4 7 7 7 5 6 5 6 5 1 2 7 3 9 9 14 21 20 17 15 17 15 14 12 13 14 13 12 9 8 8 7 6 4 3 2 3 1 0 2 3 3 4 4
6 3 11 6 4 7 3 8 7 4 3 3 2 6 4 7 12 9 11 17 15 19 19 15 13 11 10 9 9 8 7 7 6 6 5 3 3 2 2 2 2 3 4 4
4 2 8 6 6 6 4 8 4 4 3 3 3 6 5 5 14 9 17 15 16 15 11 12 14 11 10 8 7 7 7 7 7 7 6 5 3 2 2 1 2 3 4 4
8 7 5 4 7 8 8 5 7 3 4 4 1 3 7 1 7 16 20 17 16 17 22 25 26 18 13 10 8 8 7 6 6 7 7 5 3 2 1 0 3 3 4 4
7 2 7 10 4 8 6 5 7 6 4 1 6 7 6 7 9 6 9 14 17 20 18 15 12 13 11 9 8 8 9 7 6 6 7 7 7 4 3 1 2 2 2 3
2 3 2 3 6 2 5 6 3 4 3 6 4 3 12 9 7 8 7 10 14 14 16 16 18 16 14 12 11 9 9 8 6 7 6 6 6 5 5 3 1 2 2 2
7 3 7 3 7 7 6 10 8 6 3 7 3 7 11 5 6 3 4 9 12 14 15 17 19 17 16 16 13 10 9 8 6 7 6 5 5 3 3 3 2 2 2 2
6 6 2 6 5 11 4 4 5 8 3 3 4 9 11 4 7 5 6 8 12 15 16 18 17 16 15 14 14 13 11 8 7 7 5 5 5 5 4 3 2 2 2 3
6 3 5 2 5 2 9 8 4 3 4 4 5 6 7 8 10 7 9 11 10 12 15 15 15 15 13 12 11 10 10 10 8 7 6 5 6 4 4 3 2 2 3 3
5 4 4 3 5 9 3 4 6 6 5 7 2 9 10 12 9 11 15 9 13 14 15 15 14 13 13 12 12 11 10 9 8 7 5 5 5 4 4 3 1 2 2 4
6 6 5 8 1 1 5 8 8 7 5 2 4 10 6 9 9 9 8 9 11 15 16 14 14 15 14 13 11 11 10 9 8 7 6 5 5 4 3 2 2 2 3 4
9 3 1 5 6 2 4 5 6 5 4 8 6 9 2 4 5 6 6 7 10 13 14 13 14 15 14 13 12 11 10 9 7 7 6 5 5 4 3 2 3 3 3 4
10 4 10 10 8 6 5 5 5 7 5 5 8 8 9 10 8 6 5 7 11 12 12 11 12 13 13 12 13 12 10 9 8 7 5 6 5 5 3 3 3 4 3 4
9 9 7 9 7 3 3 4 8 8 6 7 8 9 11 8 11 7 8 10 13 11 12 13 12 11 12 12 11 11 9 10 9 7 6 6 5 3 3 3 3 4 4 4
3 4 7 5 6 8 6 5 7 6 5 7 3 8 7 2 7 8 11 13 13 13 13 12 11 12 14 14 12 11 10 10 9 7 7 5 4 3 4 4 4 4 4 3
6 7 5 8 4 6 3 7 7 5 3 5 5 8 4 2 6 9 13 14 15 15 15 16 16 15 14 14 14 13 11 10 9 8 6 5 5 5 5 4 4 4 4 2
6 7 3 3 4 3 8 2 3 5 5 8 4 6 6 1 2 2 4 14 12 13 14 13 13 12 12 11 11 11 11 11 10 8 5 5 5 5 4 4 5 4 3 4
3 6 4 6 4 4 1 4 7 6 7 7 6 2 2 3 3 4 7 8 11 14 12 10 10 12 12 14 13 12 11 10 9 8 6 6 6 5 5 5 5 3 3 2
5 5 6 3 6 7 9 3 3 4 4 7 7 6 6 4 2 6 9 11 11 11 9 12 12 12 13 12 14 12 11 11 10 8 8 7 6 5 5 5 4 2 2 2
2 3 5 2 3 6 5 3 1 5 12 3 6 5 9 6 5 4 7 6 7 10 13 14 15 13 13 13 13 12 11 10 10 7 5 5 5 5 5 3 2 1 2 2
2 4 2 2 4 1 3 4 8 7 4 3 2 5 7 5 5 6 9 8 12 14 13 13 12 11 11 12 11 10 10 8 6 6 5 5 4 4 3 3 2 1 2 1
1 4 5 6 6 4 4 4 4 4 4 2 2 2 7 7 4 6 6 9 10 11 11 10 12 12 10 9 9 10 6 6 6 5 5 4 5 4 4 3 3 1 2 1
1 3 2 4 3 5 5 5 5 3 3 4 4 7 6 8 7 9 8 9 9 8 10 10 12 12 9 7 7 6 6 5 5 5 4 4 4 4 2 2 2 3 3 3
4 2 4 3 6 5 3 2 4 3 4 8 6 5 9 12 9 9 8 8 8 9 9 9 11 10 8 7 6 6 6 6 5 5 4 4 2 2 2 3 3 4 4 5
5 6 4 5 4 2 4 6 2 4 1 4 13 8 6 9 11 11 9 8 9 10 9 9 8 10 7 6 6 5 5 6 6 5 3 2 2 2 2 3 3 7 7 8
Wind_Direction
196 123 173 190 186 209 131 128 163 236 196 143 219 237 202 199 203 209 208 196 187 184 171 159 152 145 138 136 143 142 137 148 144 148 100 89 117 82 115 95 339 353 348 360
91 200 198 165 167 126 143 148 222 281 126 162 179 250 214 198 213 207 194 198 190 172 163 157 149 151 156 152 145 142 147 161 164 142 125 137 143 163 316 322 330 348 354 349
158 232 147 147 162 134 207 176 191 182 132 8 179 263 210 231 231 212 209 212 190 179 170 160 158 158 144 147 149 151 155 165 163 138 117 85 73 52 31 2 321 359 344 348
192 200 153 156 174 137 178 222 155 166 118 226 55 273 282 241 233 221 220 201 191 176 161 153 158 171 160 156 144 134 161 162 146 139 121 123 150 165 196 215 282 351 356 343
213 168 157 150 195 161 211 137 184 164 106 79 358 86 266 286 258 236 230 206 186 176 171 175 185 164 157 150 153 159 162 150 136 134 125 130 147 196 169 170 31 2 336 333
200 175 155 193 176 177 134 93 40 45 92 117 215 156 251 210 216 257 222 204 184 182 176 172 155 146 150 151 159 165 159 149 145 136 133 155 162 171 122 88 50 355 315 311
98 243 266 175 122 96 103 80 337 343 8 213 125 121 247 260 234 227 225 199 183 169 164 162 160 162 160 167 172 167 159 152 159 137 146 173 166 169 144 134 124 309 311 318
157 199 175 205 174 170 181 151 159 224 219 278 122 227 255 267 256 174 179 146 150 156 166 169 172 166 167 172 171 168 171 144 177 136 169 179 176 162 149 144 183 253 264 280
146 250 234 193 158 144 191 155 195 107 45 59 228 289 310 260 259 206 164 150 164 167 170 171 171 172 170 171 171 172 172 152 179 149 171 181 185 159 168 165 184 263 289 296
203 159 209 213 103 77 159 167 96 6 158 226 282 273 242 279 253 221 214 183 173 164 165 170 176 174 169 169 167 166 165 175 171 165 180 178 187 169 159 160 201 264 295 294
134 97 283 120 183 163 145 169 56 113 133 173 216 257 218 239 238 218 231 171 169 170 171 171 173 170 165 167 166 165 167 167 157 183 171 179 188 181 166 169 182 252 286 297
190 149 211 212 181 88 169 168 145 126 228 178 176 269 242 250 244 215 223 167 165 167 171 171 162 162 166 168 167 168 166 177 173 179 163 189 186 175 157 162 232 260 284 294
177 194 71 330 344 51 189 183 127 113 82 194 155 265 313 283 202 226 174 155 159 160 167 162 158 167 172 170 166 164 171 175 171 166 168 191 196 185 166 196 252 264 277 274
122 141 163 196 198 170 175 169 143 125 130 188 221 259 283 258 228 182 157 147 152 167 164 161 166 171 170 166 161 169 170 165 163 165 171 195 196 190 180 213 250 267 271 277
139 192 189 216 194 197 127 146 159 179 187 163 250 203 249 253 222 176 156 152 160 160 169 176 175 168 159 158 163 164 161 161 157 166 183 207 194 177 188 227 253 268 275 265
349 212 170 251 165 193 226 227 185 218 182 246 243 274 240 301 110 150 168 167 172 172 179 176 171 163 163 166 163 160 160 158 155 167 202 193 166 183 209 224 240 261 276 276
146 134 112 252 167 112 339 210 198 213 188 150 189 232 157 266 231 178 174 182 181 179 177 179 181 177 172 166 161 164 159 144 162 176 198 180 187 198 220 231 240 256 264 262
142 117 88 176 82 153 239 4 210 194 210 206 257 243 204 270 341 86 184 181 174 172 177 182 178 168 164 150 144 140 151 156 164 183 187 191 193 206 215 229 239 248 245 256
126 122 100 144 156 266 97 201 177 167 239 201 218 186 116 102 47 314 187 184 186 182 178 177 168 156 142 146 148 144 146 159 164 180 194 206 200 209 206 230 240 231 231 244
89 81 110 152 124 179 231 218 150 93 306 233 189 186 157 137 113 251 186 174 170 161 149 140 133 130 138 142 142 147 153 161 177 181 204 203 206 213 214 216 244 227 232 251
32 36 133 125 131 278 241 228 112 106 240 305 179 168 162 189 200 304 108 80 105 125 123 127 134 144 147 150 146 146 151 175 183 184 186 205 204 214 198 180 219 221 258 283
150 123 153 94 83 210 166 80 155 217 282 287 240 185 172 98 47 57 75 99 114 116 121 130 130 132 139 145 142 139 165 174 158 160 191 210 189 176 160 178 245 253 245 178
349 178 171 164 218 283 277 230 258 201 207 229 220 76 120 116 91 67 93 97 107 121 128 128 127 125 131 138 139 142 175 146 152 166 204 186 164 163 149 176 233 241 223 174
226 181 109 50 257 252 279 285 262 275 233 125 116 121 93 120 116 108 107 106 108 115 119 123 124 122 120 122 123 138 137 142 154 174 158 137 158 144 161 201 228 234 222 215
199 162 141 271 285 284 280 308 315 14 56 97 70 86 121 121 106 117 110 108 109 113 116 124 125 121 123 124 123 121 125 129 127 125 127 144 148 178 221 245 238 228 224 197
186 178 143 212 250 169 267 321 332 117 139 142 119 94 88 113 119 125 113 118 128 122 114 107 108 122 131 127 127 128 128 127 128 127 143 169 190 206 227 253 277 247 245 257